FW7298 Weather Reports


Display with metric or nautical units.
time (UTC)temp
F
wind
direction
speed
MPH
gust
MPH
rain 1hr
in
rain 24hr
in
rain mn
in
humidity
%
barometer
mb
20260507194922 58 95 0.0 0.0 0.00 0.38 0.38 62 1010.3
20260507194419 58 96 2.0 2.0 0.00 0.38 0.38 65 1010.2
20260507193915 59 65 0.0 0.0 0.00 0.38 0.38 64 1010.2
20260507193412 58 59 0.0 0.0 0.00 0.38 0.38 64 1010.4
20260507192909 58 111 2.0 2.0 0.00 0.38 0.38 61 1010.1
20260507192405 60 68 1.0 1.0 0.00 0.38 0.38 61 1010.1
20260507191902 59 345 0.0 0.0 0.00 0.38 0.38 66 1010.5
20260507191358 59 60 0.0 1.0 0.00 0.38 0.38 64 1010.5
20260507190854 58 178 1.0 1.0 0.00 0.38 0.38 65 1010.7
20260507190353 58 135 0.0 2.0 0.00 0.38 0.38 64 1010.7
20260507185851 57 353 0.0 0.0 0.00 0.38 0.38 64 1010.7
20260507185348 57 25 0.0 0.0 0.00 0.38 0.38 68 1010.6
20260507184845 57 131 0.0 1.0 0.00 0.38 0.38 65 1010.9
20260507184343 57 354 0.0 0.0 0.00 0.38 0.38 61 1011.4
20260507183839 58 118 0.0 1.0 0.00 0.38 0.38 67 1011.1
20260507183336 57 306 1.0 1.0 0.00 0.38 0.38 70 1011.2
20260507182834 56 16 0.0 0.0 0.00 0.38 0.38 72 1010.8
20260507182330 56 55 0.0 1.0 0.00 0.38 0.38 70 1011.1
20260507181826 56 56 0.0 0.0 0.00 0.38 0.38 74 1010.9
20260507181322 55 121 0.0 1.0 0.00 0.38 0.38 72 1011.3
20260507180819 56 16 0.0 0.0 0.00 0.38 0.38 73 1011.6
20260507180316 56 328 0.0 0.0 0.00 0.38 0.38 74 1011.5
20260507175811 55 13 0.0 1.0 0.00 0.38 0.38 69 1011.4
20260507175309 55 60 0.0 0.0 0.00 0.38 0.38 66 1010.8
20260507174806 56 47 0.0 0.0 0.00 0.38 0.38 69 1011.7
20260507174304 56 67 0.0 1.0 0.00 0.38 0.38 67 1011.6
20260507173801 56 66 0.0 0.0 0.00 0.38 0.38 74 1011.5
20260507173258 55 103 0.0 1.0 0.00 0.38 0.38 69 1011.5
20260507172754 56 64 0.0 0.0 0.00 0.38 0.38 70 1011.7
20260507172251 56 61 0.0 0.0 0.00 0.38 0.38 74 1011.8
20260507171746 55 69 0.0 0.0 0.00 0.38 0.38 74 1012.1
20260507171244 56 64 1.0 1.0 0.00 0.38 0.38 72 1012.1
20260507170741 56 40 0.0 0.0 0.00 0.38 0.38 72 1012.3
20260507170237 56 7 0.0 0.0 0.05 0.38 0.38 75 1012.4
20260507165733 55 78 0.0 0.0 0.05 0.38 0.38 74 1012.6
20260507165229 55 81 0.0 0.0 0.00 0.37 0.37 69 1012.2
20260507164726 55 195 0.0 0.0 0.00 0.37 0.37 66 1012.8
20260507164223 56 68 0.0 1.0 0.00 0.37 0.37 63 1012.7
20260507163720 56 6 0.0 0.0 0.00 0.37 0.37 61 1012.9
20260507163218 56 292 2.0 2.0 0.00 0.37 0.37 57 1012.4
20260507162713 56 190 2.0 2.0 0.00 0.37 0.37 58 1012.6
20260507162210 56 99 0.0 0.0 0.00 0.37 0.37 64 1012.7
20260507161706 56 334 1.0 1.0 0.00 0.37 0.37 60 1012.7
20260507161203 56 245 1.0 1.0 0.00 0.37 0.37 63 1012.9
20260507160659 55 116 0.0 1.0 0.00 0.37 0.37 63 1012.8
20260507160156 56 64 0.0 0.0 0.00 0.37 0.37 67 1012.7
20260507155651 55 77 0.0 0.0 0.00 0.37 0.37 66 1012.9
20260507155148 55 18 0.0 0.0 0.00 0.37 0.37 64 1013.0
20260507154644 55 339 1.0 1.0 0.00 0.37 0.37 68 1013.3
20260507154142 55 105 0.0 1.0 0.00 0.37 0.37 68 1012.7
20260507153638 55 39 0.0 0.0 0.00 0.37 0.37 72 1012.9
20260507153135 55 39 0.0 0.0 0.00 0.37 0.37 70 1013.0
20260507152631 55 34 0.0 0.0 0.00 0.37 0.37 71 1013.1
20260507152127 55 47 0.0 0.0 0.00 0.37 0.37 72 1013.2
20260507151623 55 332 0.0 1.0 0.00 0.37 0.37 73 1013.1
20260507151120 54 29 0.0 0.0 0.00 0.37 0.37 73 1013.1
20260507150612 54 29 0.0 0.0 0.00 0.37 0.37 74 1013.2
20260507150109 54 31 0.0 0.0 0.00 0.37 0.37 74 1013.1
20260507145604 55 11 0.0 0.0 0.00 0.37 0.37 75 1013.4
20260507145102 54 10 0.0 0.0 0.00 0.37 0.37 70 1013.3
20260507144558 54 341 0.0 0.0 0.00 0.37 0.37 72 1013.4
20260507144056 54 159 1.0 2.0 0.00 0.37 0.37 70 1013.4
20260507143552 54 276 1.0 1.0 0.00 0.37 0.37 72 1013.4
20260507143050 54 239 0.0 0.0 0.00 0.37 0.37 69 1013.6
20260507142550 54 32 0.0 0.0 0.00 0.37 0.37 69 1013.5
20260507142047 55 38 0.0 0.0 0.00 0.37 0.37 74 1013.8
20260507141543 54 307 2.0 2.0 0.00 0.37 0.37 71 1013.8
20260507141040 55 127 0.0 1.0 0.00 0.37 0.37 73 1013.8
20260507140537 55 354 1.0 1.0 0.00 0.37 0.37 76 1013.6
20260507140035 54 319 0.0 1.0 0.00 0.37 0.37 77 1013.6
20260507135531 55 30 0.0 0.0 0.00 0.37 0.37 80 1013.7
20260507135029 54 319 1.0 1.0 0.00 0.37 0.37 79 1013.7
20260507134525 54 31 0.0 0.0 0.00 0.37 0.37 80 1013.9
20260507134021 54 6 0.0 1.0 0.00 0.37 0.37 81 1013.8
20260507133517 54 13 0.0 0.0 0.00 0.37 0.37 81 1013.8
20260507133016 54 13 0.0 0.0 0.00 0.37 0.37 81 1013.8
20260507132511 54 7 0.0 1.0 0.00 0.37 0.37 81 1013.8
20260507132008 54 338 1.0 1.0 0.00 0.37 0.37 82 1013.9
20260507131505 54 283 3.0 3.0 0.00 0.37 0.37 84 1013.5
20260507131002 54 50 0.0 0.0 0.00 0.37 0.37 84 1013.6
20260507130459 54 51 0.0 0.0 0.00 0.37 0.37 83 1013.7
20260507125957 54 63 0.0 0.0 0.00 0.37 0.37 82 1013.7
20260507125455 54 111 0.0 0.0 0.00 0.37 0.37 83 1013.8
20260507124952 54 283 0.0 0.0 0.00 0.37 0.37 84 1013.4
20260507124448 55 14 0.0 0.0 0.00 0.37 0.37 86 1013.5
20260507123947 54 8 0.0 0.0 0.00 0.37 0.37 85 1013.5
20260507123444 54 7 0.0 0.0 0.00 0.37 0.37 85 1013.5
20260507122940 54 39 0.0 0.0 0.00 0.37 0.37 84 1013.5
20260507122436 54 9 0.0 0.0 0.00 0.37 0.37 86 1013.4
20260507121932 54 16 0.0 0.0 0.00 0.37 0.37 87 1013.3
20260507121427 53 20 0.0 0.0 0.00 0.37 0.37 87 1013.5
20260507120924 54 38 0.0 0.0 0.00 0.37 0.37 89 1013.2
20260507120420 54 348 0.0 0.0 0.00 0.37 0.37 89 1013.4
20260507115917 53 48 1.0 1.0 0.00 0.37 0.37 89 1013.6
20260507115413 53 354 1.0 1.0 0.00 0.37 0.37 90 1013.6
20260507114909 54 18 0.0 0.0 0.00 0.37 0.37 91 1013.5
20260507114406 53 18 0.0 0.0 0.00 0.37 0.37 92 1013.4
20260507113903 53 18 0.0 0.0 0.00 0.37 0.37 92 1013.2
20260507113400 53 36 0.0 0.0 0.00 0.37 0.37 92 1012.9
20260507112857 53 36 0.0 0.0 0.00 0.37 0.37 92 1013.2
20260507112355 53 36 0.0 0.0 0.00 0.37 0.37 92 1013.0
20260507111852 53 46 0.0 0.0 0.00 0.37 0.37 92 1012.9
20260507111349 53 43 0.0 0.0 0.00 0.37 0.37 93 1012.9
20260507110845 53 38 0.0 0.0 0.00 0.37 0.37 93 1013.2
20260507110341 53 27 0.0 0.0 0.00 0.37 0.37 93 1013.1
20260507105838 53 25 0.0 0.0 0.00 0.37 0.37 93 1013.0
20260507105335 53 26 0.0 0.0 0.00 0.37 0.37 93 1013.0
20260507104832 53 27 0.0 0.0 0.00 0.37 0.37 93 1013.0
20260507104328 53 19 0.0 0.0 0.00 0.37 0.37 93 1013.0
20260507103824 54 18 0.0 0.0 0.00 0.37 0.37 94 1012.5
20260507103321 54 26 0.0 0.0 0.00 0.37 0.37 93 1012.7
20260507102817 54 32 0.0 0.0 0.00 0.37 0.37 93 1012.7
20260507102314 54 39 0.0 0.0 0.00 0.37 0.37 93 1012.6
20260507101810 54 38 0.0 0.0 0.00 0.37 0.37 93 1012.4
20260507101305 54 37 0.0 0.0 0.00 0.37 0.37 93 1012.3
20260507100802 54 35 0.0 0.0 0.00 0.37 0.37 93 1012.7
20260507100301 54 32 0.0 0.0 0.00 0.37 0.37 93 1012.7
20260507095759 54 32 0.0 0.0 0.00 0.37 0.37 93 1012.7
20260507095254 54 34 0.0 0.0 0.00 0.37 0.37 93 1012.5
20260507094751 54 34 0.0 0.0 0.00 0.37 0.37 93 1012.6
20260507094248 54 25 0.0 0.0 0.00 0.37 0.37 93 1012.4
20260507093745 54 31 0.0 0.0 0.00 0.37 0.37 93 1012.3
20260507093243 54 32 0.0 0.0 0.00 0.37 0.37 93 1012.3
20260507092741 54 34 0.0 0.0 0.00 0.37 0.37 93 1012.2
20260507092237 54 19 0.0 0.0 0.00 0.37 0.37 93 1012.6
20260507091734 54 25 0.0 0.0 0.00 0.37 0.37 93 1012.2
20260507091230 54 23 0.0 0.0 0.00 0.37 0.37 93 1012.0
20260507090726 54 14 0.0 0.0 0.00 0.37 0.37 93 1012.3
20260507090222 54 14 0.0 0.0 0.00 0.37 0.37 93 1012.2
20260507085720 55 16 0.0 0.0 0.00 0.37 0.37 93 1012.1
20260507085217 54 16 0.0 0.0 0.00 0.37 0.37 93 1012.2
20260507084713 54 14 0.0 0.0 0.00 0.37 0.37 93 1012.4
20260507084210 54 11 0.0 0.0 0.00 0.37 0.37 93 1012.2
20260507083707 54 12 0.0 0.0 0.00 0.37 0.37 93 1012.0
20260507083204 54 8 0.0 0.0 0.00 0.37 0.37 93 1012.4
20260507082700 54 1 0.0 0.0 0.00 0.37 0.37 93 1012.2
20260507082156 54 31 0.0 0.0 0.00 0.37 0.37 93 1012.0
20260507081653 54 5 0.0 0.0 0.00 0.37 0.37 92 1012.3
20260507081149 54 8 0.0 0.0 0.00 0.37 0.37 93 1012.1
20260507080646 55 3 1.0 1.0 0.00 0.37 0.37 92 1012.0
20260507080143 54 15 0.0 0.0 0.00 0.37 0.37 92 1012.0
20260507075642 55 46 0.0 0.0 0.00 0.37 0.37 92 1011.6
20260507075139 55 347 0.0 1.0 0.00 0.37 0.37 92 1011.6
20260507074636 54 6 0.0 0.0 0.00 0.37 0.37 92 1011.7
20260507074134 54 306 0.0 1.0 0.00 0.37 0.37 92 1011.8
20260507073630 54 343 1.0 2.0 0.00 0.37 0.37 92 1011.6
20260507073126 54 358 0.0 0.0 0.00 0.37 0.37 92 1011.6
20260507072624 54 306 1.0 1.0 0.00 0.37 0.37 92 1011.2
20260507072121 54 355 0.0 0.0 0.00 0.37 0.37 93 1011.3
20260507071619 54 352 0.0 1.0 0.00 0.37 0.37 93 1011.4
20260507071115 54 335 1.0 1.0 0.00 0.37 0.37 93 1011.6
20260507070612 54 353 1.0 2.0 0.00 0.37 0.37 93 1011.3
20260507070109 55 310 3.0 3.0 0.00 0.37 0.37 94 1011.2
20260507065605 55 312 1.0 2.0 0.00 0.37 0.37 94 1011.2
20260507065102 55 348 0.0 1.0 0.00 0.37 0.37 94 1011.4
20260507064600 55 9 1.0 1.0 0.00 0.37 0.37 95 1011.4
20260507064059 55 337 2.0 2.0 0.00 0.37 0.37 95 1011.2
20260507063555 55 341 2.0 2.0 0.00 0.37 0.37 95 1011.4
20260507063053 55 13 0.0 0.0 0.00 0.37 0.37 95 1011.2
20260507062549 56 15 0.0 0.0 0.07 0.37 0.37 95 1011.5
20260507062047 56 353 1.0 2.0 0.07 0.37 0.37 95 1011.6
20260507061544 56 311 0.0 1.0 0.00 0.36 0.36 95 1011.2
20260507061042 56 56 2.0 2.0 0.00 0.36 0.36 95 1011.3
20260507060540 56 359 1.0 2.0 0.00 0.36 0.36 95 1011.1
20260507060037 57 295 2.0 2.0 0.00 0.36 0.36 95 1011.2
20260507055531 57 346 1.0 2.0 0.00 0.36 0.36 95 1010.9
20260507055028 57 21 0.0 0.0 0.00 0.36 0.36 95 1010.8
20260507054524 57 340 2.0 2.0 0.05 0.36 0.36 95 1011.1
20260507054021 57 198 2.0 2.0 0.05 0.36 0.36 95 1011.1
20260507053519 57 343 1.0 1.0 0.00 0.35 0.35 95 1011.3
20260507053018 57 41 0.0 0.0 0.07 0.35 0.35 94 1011.4
20260507052515 57 28 0.0 1.0 0.12 0.35 0.35 94 1011.3
20260507052011 57 3 0.0 1.0 0.05 0.34 0.34 94 1010.8
20260507051509 57 322 1.0 1.0 0.05 0.34 0.34 94 1011.4
20260507051006 57 182 1.0 1.0 0.07 0.33 0.33 94 1011.3
20260507050502 58 29 0.0 0.0 0.07 0.33 0.33 94 1011.3
20260507045959 58 330 2.0 2.0 0.00 0.32 0.32 93 1011.5
20260507045455 58 7 1.0 1.0 0.05 0.32 0.32 93 1011.1
20260507044953 57 65 0.0 0.0 0.12 0.32 0.32 93 1011.4
20260507044449 58 341 0.0 0.0 0.17 0.32 0.32 93 1011.5
20260507043946 58 292 1.0 2.0 0.35 0.30 0.30 92 1011.2
20260507043442 58 14 0.0 0.0 0.71 0.28 0.28 92 1011.6
20260507042938 58 352 0.0 0.0 1.13 0.25 0.25 91 1011.8
20260507042436 59 340 1.0 1.0 0.78 0.17 0.17 90 1011.7
20260507041931 60 358 1.0 1.0 0.24 0.06 0.06 87 1011.5
20260507041428 60 278 1.0 1.0 0.19 0.04 0.04 85 1011.3
20260507040925 62 332 3.0 5.0 0.12 0.02 0.02 82 1011.2
20260507040421 62 16 2.0 2.0 0.00 0.00 0.00 79 1011.1
20260507035917 63 291 3.0 5.0 0.00 0.24 0.24 78 1011.2
20260507035414 63 62 1.0 1.0 0.00 0.24 0.24 78 1011.1
20260507034910 63 290 3.0 5.0 0.00 0.24 0.24 78 1010.8
20260507034407 64 16 0.0 1.0 0.00 0.24 0.24 79 1010.7
20260507033906 64 295 2.0 2.0 0.00 0.24 0.24 80 1010.8
20260507033403 64 356 2.0 2.0 0.00 0.24 0.24 81 1011.0
20260507032900 65 305 3.0 3.0 0.00 0.24 0.24 82 1010.9
20260507032356 65 294 1.0 2.0 0.00 0.24 0.24 83 1010.7
20260507031853 65 357 0.0 0.0 0.00 0.24 0.24 84 1010.7
20260507031349 65 345 1.0 1.0 0.00 0.24 0.24 83 1010.8
20260507030846 66 337 1.0 1.0 0.00 0.24 0.24 84 1010.5
20260507030343 66 343 1.0 1.0 0.00 0.24 0.24 84 1010.0
20260507025840 66 295 1.0 1.0 0.00 0.24 0.24 83 1010.0
20260507025337 66 342 0.0 0.0 0.00 0.24 0.24 83 1010.2
20260507024835 66 279 2.0 2.0 0.00 0.24 0.24 83 1010.1
20260507024332 66 317 2.0 2.0 0.00 0.24 0.24 83 1010.7
20260507023828 66 318 1.0 2.0 0.00 0.24 0.24 83 1010.5
20260507023325 66 19 1.0 1.0 0.00 0.24 0.24 83 1010.1
20260507022822 66 331 1.0 2.0 0.00 0.24 0.24 85 1010.0
20260507022319 66 14 1.0 1.0 0.00 0.24 0.24 87 1010.1
20260507021815 66 5 1.0 1.0 0.00 0.24 0.24 88 1009.7
20260507021311 66 29 0.0 1.0 0.00 0.24 0.24 89 1010.0
20260507020809 66 284 2.0 2.0 0.00 0.24 0.24 90 1009.7
20260507020305 66 44 0.0 0.0 0.00 0.24 0.24 90 1009.6
20260507015802 66 51 0.0 0.0 0.00 0.24 0.24 90 1009.9
20260507015300 67 357 0.0 0.0 0.00 0.24 0.24 89 1010.2
20260507014756 67 342 0.0 0.0 0.00 0.24 0.24 88 1010.0
20260507014253 67 55 0.0 0.0 0.00 0.24 0.24 88 1010.0
20260507013749 67 55 0.0 0.0 0.00 0.24 0.24 87 1009.8
20260507013247 67 56 0.0 0.0 0.00 0.24 0.24 87 1009.9
20260507012744 67 55 0.0 0.0 0.00 0.24 0.24 86 1010.2
20260507012244 67 66 0.0 0.0 0.00 0.24 0.24 86 1009.7
20260507011743 67 66 0.0 0.0 0.00 0.24 0.24 86 1009.8
20260507011239 68 64 0.0 0.0 0.00 0.24 0.24 85 1010.0
20260507010738 68 65 0.0 0.0 0.00 0.24 0.24 85 1010.2
20260507010235 68 65 0.0 0.0 0.00 0.24 0.24 85 1010.4
20260507005733 68 60 0.0 0.0 0.00 0.24 0.24 85 1010.3
20260507005229 67 60 0.0 0.0 0.00 0.24 0.24 85 1010.1
20260507004725 68 59 0.0 0.0 0.00 0.24 0.24 85 1009.8
20260507004223 68 58 0.0 0.0 0.00 0.24 0.24 85 1010.1
20260507003719 68 58 0.0 0.0 0.00 0.24 0.24 84 1009.7
20260507003214 68 59 0.0 0.0 0.00 0.24 0.24 84 1009.8
20260507002711 68 56 0.0 0.0 0.00 0.24 0.24 84 1009.8
20260507002207 68 3 0.0 0.0 0.00 0.24 0.24 84 1009.9
20260507001704 68 349 0.0 0.0 0.00 0.24 0.24 83 1009.8
20260507001201 68 22 0.0 0.0 0.00 0.24 0.24 83 1009.7
20260507000657 68 26 0.0 0.0 0.00 0.24 0.24 83 1009.7
20260507000153 68 43 0.0 0.0 0.00 0.24 0.24 82 1009.4
20260506235650 69 68 0.0 0.0 0.00 0.24 0.24 82 1009.4
20260506235145 69 102 0.0 0.0 0.00 0.24 0.24 82 1009.2
20260506234643 69 22 0.0 0.0 0.00 0.24 0.24 82 1009.3
20260506234140 69 51 0.0 0.0 0.00 0.24 0.24 83 1009.2
20260506233637 69 34 0.0 0.0 0.00 0.24 0.24 82 1009.0
20260506233134 69 64 0.0 0.0 0.00 0.24 0.24 82 1008.9
20260506232630 69 65 0.0 0.0 0.00 0.24 0.24 82 1009.0
20260506232125 69 341 0.0 1.0 0.00 0.24 0.24 82 1008.8
20260506231623 69 50 0.0 0.0 0.00 0.24 0.24 82 1009.1
20260506231121 69 28 0.0 0.0 0.00 0.24 0.24 82 1008.7
20260506230617 69 24 0.0 0.0 0.00 0.24 0.24 81 1008.9
20260506230115 69 15 0.0 1.0 0.00 0.24 0.24 81 1008.8
20260506225611 69 310 0.0 0.0 0.00 0.24 0.24 82 1009.0
20260506225108 69 51 2.0 2.0 0.00 0.24 0.24 81 1008.9
20260506224604 69 3 0.0 0.0 0.00 0.24 0.24 80 1008.7
20260506224101 69 172 0.0 0.0 0.00 0.24 0.24 81 1008.7
20260506223557 70 79 0.0 1.0 0.00 0.24 0.24 80 1008.6
20260506223053 70 356 1.0 1.0 0.00 0.24 0.24 79 1008.7
20260506222550 70 22 0.0 0.0 0.00 0.24 0.24 79 1009.1
20260506222047 69 54 0.0 0.0 0.00 0.24 0.24 79 1008.8
20260506221545 69 24 1.0 1.0 0.00 0.24 0.24 79 1009.2
20260506221042 69 240 0.0 1.0 0.00 0.24 0.24 79 1009.0
20260506220538 70 138 0.0 0.0 0.00 0.24 0.24 79 1008.9
20260506220033 70 3 1.0 1.0 0.00 0.24 0.24 79 1008.7
20260506215531 69 82 0.0 0.0 0.00 0.24 0.24 79 1009.0
20260506215026 69 42 0.0 0.0 0.00 0.24 0.24 80 1008.8
20260506214524 69 64 0.0 0.0 0.00 0.24 0.24 79 1008.9
20260506214021 69 177 0.0 0.0 0.00 0.24 0.24 79 1009.1
20260506213519 69 301 0.0 0.0 0.00 0.24 0.24 79 1008.9
20260506213016 69 223 1.0 1.0 0.00 0.24 0.24 79 1008.8
20260506212512 69 39 2.0 5.0 0.00 0.24 0.24 79 1008.9
20260506212007 69 185 0.0 0.0 0.00 0.24 0.24 80 1009.0
20260506211503 69 56 0.0 0.0 0.00 0.24 0.24 80 1009.0
20260506211001 69 355 0.0 1.0 0.00 0.24 0.24 80 1009.0
20260506210456 69 216 1.0 1.0 0.00 0.24 0.24 80 1009.0
20260506205953 69 207 0.0 1.0 0.00 0.24 0.24 81 1008.9
20260506205449 69 335 0.0 1.0 0.00 0.24 0.24 80 1008.8
20260506204946 69 351 2.0 2.0 0.00 0.24 0.24 79 1008.9
20260506204444 69 64 0.0 0.0 0.00 0.24 0.24 80 1008.7
20260506203941 69 93 0.0 0.0 0.00 0.24 0.24 80 1008.5
20260506203438 69 343 1.0 1.0 0.00 0.24 0.24 80 1008.8
20260506202935 68 18 1.0 2.0 0.00 0.24 0.24 80 1008.6
20260506202432 69 339 2.0 2.0 0.00 0.24 0.24 79 1008.7
20260506201929 69 187 0.0 1.0 0.00 0.24 0.24 80 1008.6
20260506201426 68 232 2.0 2.0 0.00 0.24 0.24 80 1008.8
20260506200923 68 108 1.0 1.0 0.00 0.24 0.24 82 1008.7
20260506200419 68 311 1.0 2.0 0.00 0.24 0.24 81 1008.5
20260506195916 68 321 3.0 3.0 0.00 0.24 0.24 81 1008.6
20260506195413 68 53 2.0 5.0 0.00 0.24 0.24 81 1008.7